RYR4BJ LIME-LOWW

Flight info

Callsign RYR4BJ
Flight time 0h 58m
Altitude 33000
Route LEGLO L615 OSKOR M985 NESTI DCT ARALD DCT ABTAN ABTAN2W
Aircraft A320/M-SDE3FGHIRWY/LB1

Departure

Time 2026-04-30 06:41
Airport Il Caravaggio International Airport (LIME)

Arrival

Time 2026-04-30 07:40
Airport Vienna International Airport (LOWW)
Time Latitude Longitude Altitude Speed Heading
2026-04-30 06:09 45.66705 9.69675 787 ft 0 kts 195°
2026-04-30 06:28 45.66716 9.69679 787 ft 4 kts 195°
2026-04-30 06:28 45.66742 9.69689 787 ft 4 kts 195°
2026-04-30 06:29 45.66768 9.69699 787 ft 4 kts 195°
2026-04-30 06:29 45.66788 9.69706 787 ft 4 kts 159°
2026-04-30 06:29 45.66802 9.69682 787 ft 4 kts 106°
2026-04-30 06:29 45.66810 9.69647 787 ft 4 kts 107°
2026-04-30 06:30 45.66812 9.69637 787 ft 0 kts 105°
2026-04-30 06:33 45.66811 9.69639 787 ft 1 kts 105°
2026-04-30 06:33 45.66807 9.69661 787 ft 3 kts 105°
2026-04-30 06:33 45.66799 9.69704 787 ft 6 kts 105°
2026-04-30 06:34 45.66787 9.69765 787 ft 8 kts 106°
2026-04-30 06:34 45.66765 9.69877 787 ft 16 kts 105°
2026-04-30 06:34 45.66730 9.70062 787 ft 22 kts 104°
2026-04-30 06:34 45.66689 9.70287 787 ft 24 kts 105°
2026-04-30 06:35 45.66645 9.70527 787 ft 26 kts 104°
2026-04-30 06:35 45.66598 9.70781 787 ft 27 kts 105°
2026-04-30 06:35 45.66548 9.71046 787 ft 28 kts 106°
2026-04-30 06:35 45.66484 9.71310 787 ft 26 kts 105°
2026-04-30 06:36 45.66440 9.71546 787 ft 19 kts 102°
2026-04-30 06:36 45.66460 9.71735 787 ft 18 kts 74°
2026-04-30 06:36 45.66463 9.71909 787 ft 19 kts 104°
2026-04-30 06:36 45.66429 9.72098 787 ft 21 kts 104°
2026-04-30 06:37 45.66397 9.72274 787 ft 4 kts 104°
2026-04-30 06:37 45.66396 9.72282 787 ft 0 kts 104°
2026-04-30 06:37 45.66394 9.72294 787 ft 4 kts 104°
2026-04-30 06:37 45.66382 9.72354 787 ft 9 kts 104°
2026-04-30 06:38 45.66376 9.72387 787 ft 0 kts 104°
2026-04-30 06:38 45.66373 9.72408 787 ft 6 kts 101°
2026-04-30 06:38 45.66416 9.72460 787 ft 11 kts 349°
2026-04-30 06:39 45.66468 9.72389 787 ft 6 kts 287°
2026-04-30 06:39 45.66469 9.72383 787 ft 0 kts 284°
2026-04-30 06:40 45.66470 9.72378 787 ft 3 kts 284°
2026-04-30 06:40 45.66528 9.72067 787 ft 72 kts 285°
2026-04-30 06:40 45.66716 9.71051 788 ft 136 kts 284°
2026-04-30 06:41 45.66996 9.69584 1126 ft 152 kts 284°
2026-04-30 06:41 45.67124 9.68075 1691 ft 156 kts 259°
2026-04-30 06:41 45.66779 9.66608 2249 ft 157 kts 233°
2026-04-30 06:41 45.66080 9.65393 2678 ft 165 kts 220°
2026-04-30 06:42 45.65225 9.64136 2921 ft 189 kts 220°
2026-04-30 06:42 45.64241 9.62706 3254 ft 207 kts 220°
2026-04-30 06:42 45.63271 9.61274 4094 ft 196 kts 221°
2026-04-30 06:42 45.62329 9.59882 4777 ft 195 kts 220°
2026-04-30 06:43 45.61382 9.58489 5213 ft 199 kts 220°
2026-04-30 06:43 45.60352 9.57021 5544 ft 216 kts 221°
2026-04-30 06:43 45.59264 9.55510 6138 ft 219 kts 216°
2026-04-30 06:43 45.57918 9.54573 6729 ft 217 kts 187°
2026-04-30 06:44 45.56430 9.54721 7265 ft 216 kts 158°
2026-04-30 06:44 45.55187 9.55898 7794 ft 218 kts 129°
2026-04-30 06:44 45.54505 9.57815 8316 ft 220 kts 99°
2026-04-30 06:44 45.54580 9.59975 8851 ft 220 kts 69°
2026-04-30 06:45 45.55375 9.61814 9442 ft 220 kts 45°
2026-04-30 06:45 45.56416 9.63428 10025 ft 222 kts 45°
2026-04-30 06:45 45.57468 9.65061 10579 ft 225 kts 45°
2026-04-30 06:45 45.58526 9.66713 11261 ft 227 kts 45°
2026-04-30 06:46 45.59434 9.68678 11503 ft 251 kts 62°
2026-04-30 06:46 45.60215 9.71034 11747 ft 274 kts 62°
2026-04-30 06:46 45.61060 9.73605 11970 ft 298 kts 63°
2026-04-30 06:46 45.61969 9.76387 12144 ft 321 kts 63°
2026-04-30 06:47 45.62925 9.79323 12430 ft 337 kts 63°
2026-04-30 06:47 45.63916 9.82395 13038 ft 343 kts 63°
2026-04-30 06:47 45.64920 9.85513 13729 ft 347 kts 63°
2026-04-30 06:47 45.65933 9.88663 14388 ft 351 kts 63°
2026-04-30 06:48 45.66959 9.91843 14992 ft 354 kts 63°
2026-04-30 06:48 45.67994 9.95052 15599 ft 357 kts 63°
2026-04-30 06:48 45.69050 9.98331 16216 ft 359 kts 63°
2026-04-30 06:48 45.70087 10.01547 16807 ft 362 kts 63°
2026-04-30 06:49 45.70747 10.03590 17191 ft 364 kts 63°
2026-04-30 06:49 45.71829 10.06935 17813 ft 367 kts 63°
2026-04-30 06:49 45.72888 10.10224 18424 ft 370 kts 63°
2026-04-30 06:49 45.73966 10.13584 18967 ft 373 kts 63°
2026-04-30 06:50 45.75052 10.16974 19518 ft 376 kts 63°
2026-04-30 06:50 45.76143 10.20391 20077 ft 379 kts 63°
2026-04-30 06:50 45.77242 10.23835 20638 ft 382 kts 63°
2026-04-30 06:50 45.78349 10.27310 21193 ft 385 kts 63°
2026-04-30 06:51 45.79463 10.30812 21744 ft 388 kts 63°
2026-04-30 06:51 45.80584 10.34341 22287 ft 391 kts 63°
2026-04-30 06:51 45.81716 10.37898 22812 ft 394 kts 63°
2026-04-30 06:51 45.82857 10.41482 23298 ft 397 kts 63°
2026-04-30 06:52 45.84004 10.45094 23791 ft 400 kts 63°
2026-04-30 06:52 45.85162 10.48736 24202 ft 403 kts 63°
2026-04-30 06:52 45.86327 10.52401 24597 ft 405 kts 63°
2026-04-30 06:52 45.87495 10.56092 24996 ft 408 kts 63°
2026-04-30 06:53 45.88665 10.59810 25415 ft 410 kts 63°
2026-04-30 06:53 45.89839 10.63556 25811 ft 413 kts 63°
2026-04-30 06:53 45.91021 10.67325 26184 ft 415 kts 63°
2026-04-30 06:53 45.92213 10.71120 26539 ft 418 kts 63°
2026-04-30 06:54 45.93413 10.74937 26915 ft 420 kts 63°
2026-04-30 06:54 45.94617 10.78776 27271 ft 423 kts 63°
2026-04-30 06:54 45.95825 10.82640 27630 ft 425 kts 63°
2026-04-30 06:54 45.97035 10.86525 27998 ft 427 kts 63°
2026-04-30 06:55 45.98254 10.90439 28359 ft 430 kts 63°
2026-04-30 06:55 45.99478 10.94373 28703 ft 432 kts 63°
2026-04-30 06:55 46.00708 10.98327 29054 ft 435 kts 63°
2026-04-30 06:55 46.01945 11.02311 29405 ft 437 kts 63°
2026-04-30 06:56 46.03185 11.06314 29740 ft 439 kts 63°
2026-04-30 06:56 46.04432 11.10340 30073 ft 441 kts 63°
2026-04-30 06:56 46.05681 11.14383 30465 ft 441 kts 63°
2026-04-30 06:56 46.06904 11.18361 30894 ft 440 kts 63°
2026-04-30 06:57 46.08141 11.22389 31319 ft 439 kts 63°
2026-04-30 06:57 46.09355 11.26351 31738 ft 438 kts 63°
2026-04-30 06:57 46.10581 11.30354 32154 ft 436 kts 63°
2026-04-30 06:57 46.11805 11.34352 32585 ft 436 kts 63°
2026-04-30 06:58 46.13025 11.38343 33015 ft 435 kts 63°
2026-04-30 06:58 46.14243 11.42336 33219 ft 435 kts 63°
2026-04-30 06:58 46.15458 11.46323 33252 ft 434 kts 63°
2026-04-30 06:59 46.17883 11.54296 33263 ft 433 kts 63°
2026-04-30 06:59 46.20299 11.62258 33265 ft 433 kts 63°
2026-04-30 07:00 46.22709 11.70219 33274 ft 432 kts 63°
2026-04-30 07:00 46.25110 11.78173 33286 ft 432 kts 63°
2026-04-30 07:01 46.27496 11.86138 33293 ft 432 kts 64°
2026-04-30 07:01 46.29873 11.94107 33298 ft 431 kts 63°
2026-04-30 07:02 46.32250 12.02066 33302 ft 431 kts 63°
2026-04-30 07:02 46.34628 12.10032 33300 ft 431 kts 64°
2026-04-30 07:03 46.36985 12.17990 33297 ft 430 kts 64°
2026-04-30 07:03 46.39320 12.25902 33312 ft 430 kts 64°
2026-04-30 07:04 46.41667 12.33871 33314 ft 430 kts 64°
2026-04-30 07:04 46.44006 12.41847 33316 ft 430 kts 64°
2026-04-30 07:05 46.47495 12.53746 33315 ft 429 kts 64°
2026-04-30 07:05 46.49821 12.61707 33307 ft 428 kts 64°
2026-04-30 07:06 46.51754 12.68375 33304 ft 428 kts 64°
2026-04-30 07:06 46.54054 12.76338 33307 ft 427 kts 64°
2026-04-30 07:07 46.56356 12.84304 33314 ft 428 kts 64°
2026-04-30 07:07 46.58648 12.92277 33319 ft 428 kts 64°
2026-04-30 07:08 46.60917 13.00206 33325 ft 427 kts 64°
2026-04-30 07:08 46.63193 13.08188 33334 ft 427 kts 64°
2026-04-30 07:09 46.65470 13.16165 33342 ft 426 kts 64°
2026-04-30 07:09 46.67733 13.24141 33353 ft 426 kts 64°
2026-04-30 07:10 46.70322 13.31864 33360 ft 424 kts 59°
2026-04-30 07:10 46.73036 13.39469 33362 ft 423 kts 59°
2026-04-30 07:11 46.75743 13.47082 33366 ft 422 kts 59°
2026-04-30 07:11 46.78439 13.54706 33373 ft 423 kts 59°
2026-04-30 07:12 46.81132 13.62327 33377 ft 422 kts 59°
2026-04-30 07:12 46.83815 13.69953 33385 ft 422 kts 59°
2026-04-30 07:13 46.86491 13.77581 33391 ft 422 kts 59°
2026-04-30 07:13 46.89165 13.85216 33394 ft 422 kts 59°
2026-04-30 07:14 46.91828 13.92860 33396 ft 422 kts 60°
2026-04-30 07:14 46.94489 14.00514 33403 ft 422 kts 59°
2026-04-30 07:15 46.97129 14.08097 33408 ft 421 kts 59°
2026-04-30 07:15 46.99783 14.15767 33407 ft 422 kts 60°
2026-04-30 07:16 47.02420 14.23432 33414 ft 421 kts 60°
2026-04-30 07:16 47.05053 14.31098 33418 ft 421 kts 60°
2026-04-30 07:17 47.07684 14.38774 33416 ft 421 kts 60°
2026-04-30 07:18 47.11468 14.50420 33415 ft 424 kts 68°
2026-04-30 07:18 47.12964 14.58848 33431 ft 427 kts 72°
2026-04-30 07:19 47.14415 14.67303 33438 ft 427 kts 72°
2026-04-30 07:19 47.15867 14.75769 33438 ft 427 kts 72°
2026-04-30 07:19 47.16592 14.80004 33255 ft 427 kts 72°
2026-04-30 07:20 47.17316 14.84230 32982 ft 426 kts 72°
2026-04-30 07:20 47.18037 14.88453 32715 ft 426 kts 72°
2026-04-30 07:20 47.18754 14.92656 32320 ft 422 kts 72°
2026-04-30 07:20 47.19461 14.96824 31787 ft 419 kts 72°
2026-04-30 07:21 47.20158 15.00963 31256 ft 415 kts 72°
2026-04-30 07:21 47.20846 15.05073 30733 ft 412 kts 73°
2026-04-30 07:21 47.21526 15.09149 30161 ft 409 kts 73°
2026-04-30 07:21 47.22200 15.13185 29633 ft 404 kts 73°
2026-04-30 07:22 47.23522 15.21113 28620 ft 394 kts 72°
2026-04-30 07:22 47.24187 15.25090 28123 ft 409 kts 72°
2026-04-30 07:22 47.24873 15.29191 27598 ft 415 kts 73°
2026-04-30 07:23 47.25557 15.33315 27078 ft 414 kts 73°
2026-04-30 07:23 47.26234 15.37419 26577 ft 411 kts 73°
2026-04-30 07:23 47.26903 15.41501 26070 ft 408 kts 73°
2026-04-30 07:23 47.27561 15.45547 25595 ft 405 kts 73°
2026-04-30 07:24 47.28216 15.49564 25117 ft 402 kts 73°
2026-04-30 07:24 47.28870 15.53553 24651 ft 399 kts 73°
2026-04-30 07:24 47.29517 15.57512 24192 ft 396 kts 72°
2026-04-30 07:24 47.30154 15.61437 23693 ft 393 kts 73°
2026-04-30 07:25 47.30787 15.65344 23232 ft 391 kts 73°
2026-04-30 07:25 47.31416 15.69228 22771 ft 389 kts 73°
2026-04-30 07:25 47.32039 15.73097 22313 ft 387 kts 73°
2026-04-30 07:25 47.32658 15.76944 21834 ft 385 kts 73°
2026-04-30 07:26 47.33275 15.80767 21364 ft 383 kts 73°
2026-04-30 07:26 47.33888 15.84571 20871 ft 381 kts 73°
2026-04-30 07:26 47.34495 15.88360 20379 ft 379 kts 73°
2026-04-30 07:26 47.35096 15.92136 19882 ft 378 kts 73°
2026-04-30 07:27 47.35687 15.95841 19390 ft 375 kts 72°
2026-04-30 07:27 47.36606 15.99392 18898 ft 368 kts 58°
2026-04-30 07:27 47.38093 16.02416 18360 ft 362 kts 44°
2026-04-30 07:27 47.40035 16.04715 18086 ft 358 kts 30°
2026-04-30 07:28 47.42288 16.06245 17783 ft 357 kts 18°
2026-04-30 07:28 47.44641 16.07417 17477 ft 356 kts 18°
2026-04-30 07:28 47.46981 16.08585 17175 ft 355 kts 18°
2026-04-30 07:28 47.49316 16.09749 16879 ft 353 kts 18°
2026-04-30 07:29 47.51642 16.10906 16579 ft 352 kts 18°
2026-04-30 07:29 47.53962 16.12058 16285 ft 351 kts 18°
2026-04-30 07:29 47.56277 16.13205 15754 ft 351 kts 18°
2026-04-30 07:29 47.58589 16.14365 15125 ft 351 kts 19°
2026-04-30 07:30 47.62449 16.18657 14100 ft 346 kts 43°
2026-04-30 07:30 47.64115 16.21208 13581 ft 343 kts 44°
2026-04-30 07:30 47.65757 16.23741 13067 ft 339 kts 44°
2026-04-30 07:31 47.67383 16.26253 12541 ft 336 kts 44°
2026-04-30 07:31 47.68989 16.28737 12025 ft 332 kts 45°
2026-04-30 07:31 47.70579 16.31200 11497 ft 329 kts 45°
2026-04-30 07:31 47.72154 16.33646 11042 ft 326 kts 45°
2026-04-30 07:32 47.73711 16.36064 10556 ft 323 kts 45°
2026-04-30 07:32 47.75258 16.38467 10029 ft 320 kts 46°
2026-04-30 07:32 47.76788 16.40847 9480 ft 318 kts 45°
2026-04-30 07:32 47.78292 16.43191 8814 ft 308 kts 45°
2026-04-30 07:33 47.79744 16.45453 8163 ft 297 kts 45°
2026-04-30 07:33 47.81150 16.47648 7529 ft 289 kts 45°
2026-04-30 07:33 47.82522 16.49786 6910 ft 282 kts 45°
2026-04-30 07:33 47.83866 16.51879 6235 ft 277 kts 45°
2026-04-30 07:34 47.85172 16.53919 5840 ft 266 kts 45°
2026-04-30 07:34 47.86399 16.55846 5508 ft 255 kts 45°
2026-04-30 07:34 47.87603 16.57741 5166 ft 248 kts 45°
2026-04-30 07:34 47.88757 16.59558 4842 ft 236 kts 44°
2026-04-30 07:35 47.89858 16.61289 4518 ft 225 kts 44°
2026-04-30 07:35 47.90914 16.62947 4191 ft 218 kts 44°
2026-04-30 07:35 47.91974 16.64521 3904 ft 212 kts 34°
2026-04-30 07:35 47.93283 16.65322 3794 ft 199 kts
2026-04-30 07:36 47.94632 16.65138 3615 ft 195 kts 346°
2026-04-30 07:36 47.95929 16.64589 3360 ft 193 kts 346°
2026-04-30 07:36 47.97214 16.64044 3098 ft 191 kts 346°
2026-04-30 07:36 47.98487 16.63507 2860 ft 192 kts 347°
2026-04-30 07:37 47.99795 16.62957 2574 ft 198 kts 346°
2026-04-30 07:37 48.01116 16.62401 2294 ft 197 kts 346°
2026-04-30 07:37 48.02428 16.61848 2016 ft 192 kts 345°
2026-04-30 07:37 48.03664 16.61327 1757 ft 177 kts 345°
2026-04-30 07:38 48.04797 16.60848 1488 ft 162 kts 346°
2026-04-30 07:38 48.05839 16.60409 1262 ft 149 kts 346°
2026-04-30 07:38 48.06791 16.60007 1085 ft 136 kts 346°
2026-04-30 07:38 48.07688 16.59629 880 ft 132 kts 346°
2026-04-30 07:39 48.08561 16.59257 696 ft 129 kts 346°
2026-04-30 07:39 48.09418 16.58899 621 ft 121 kts 346°
2026-04-30 07:39 48.10062 16.58629 621 ft 76 kts 344°
2026-04-30 07:39 48.10472 16.58455 617 ft 51 kts 344°
2026-04-30 07:40 48.10786 16.58322 618 ft 37 kts 344°
2026-04-30 07:40 48.10963 16.58215 615 ft 26 kts 322°
2026-04-30 07:40 48.11070 16.57985 617 ft 28 kts 296°
2026-04-30 07:40 48.11160 16.57712 619 ft 30 kts 296°
2026-04-30 07:41 48.11247 16.57441 617 ft 30 kts 296°
2026-04-30 07:41 48.11340 16.57154 613 ft 32 kts 296°
2026-04-30 07:41 48.11418 16.56917 615 ft 25 kts 296°
2026-04-30 07:41 48.11496 16.56677 612 ft 27 kts 296°
2026-04-30 07:42 48.11581 16.56415 614 ft 29 kts 296°
2026-04-30 07:42 48.11669 16.56146 613 ft 29 kts 296°
2026-04-30 07:42 48.11747 16.55908 620 ft 18 kts 296°
2026-04-30 07:42 48.11793 16.55797 609 ft 10 kts 326°
2026-04-30 07:43 48.11856 16.55775 621 ft 8 kts 349°
2026-04-30 07:43 48.11900 16.55762 613 ft 4 kts 349°
2026-04-30 07:43 48.11906 16.55761 620 ft 0 kts 349°